Weather in Peremishlyani

Ukraine / Lviv District     49˚40′13″N   24˚33′36″E
temp.,
°C
wind,
m/s
gust,
m/s
humid.,
%
clouds,
%
prec.,
mm/h
press.,
hPa
HPBL,
m
29 november, sun
sun2923:00−1˚nw2595100 0.3 1020325
02:00−2˚wnw2497100 0.4 1020237
05:00−2˚wsw1295100 0.2 1020187
08:00−2˚wsw2395100 0.4 1020257
11:00w3482100 0.0 1020543
14:00w237599 0.1 1020607
17:00−1˚wsw2390100 0.1 1021105
20:00−2˚w239588 0.1 1022109
30 november, mon
mon3023:00−2˚wsw249687 0.1 1023205
02:00−2˚w249780 0.2 1024186
05:00−2˚w238590 0.0 1024363
08:00−2˚w238992 0.1 1026205
11:00−1˚w337873 0.0 1027506
14:00wnw337484 0.1 1027700
17:00−2˚wnw238299 0.0 1028128
20:00−2˚wsw128683 0.0 102879
1 december, tue
tue123:00−3˚ssw118521 0.0 102941
02:00−3˚s128814 0.0 102824
05:00−3˚sse22880 0.0 102842
08:00−4˚se36850 0.0 1028191
11:00−1˚sse47710 0.0 1028453
14:00se46670 0.0 1027495
17:00−3˚ese37810 0.0 1027180
20:00−3˚se38800 0.0 1028248
2 december, wed
wed223:00−3˚ese38830 0.0 1027232
02:00−4˚ese24880 0.0 1027115
05:00−4˚e24920 0.0 102697
08:00−4˚ese22958 0.0 102667
11:00−1˚ese358658 0.0 1025357
14:00ese348677 0.0 1023453
17:00ese3588100 0.0 1023306
20:00se2688100 0.0 1023273
3 december, thu
thu323:00−1˚sse269195 0.0 1023287
02:00−1˚se259089 0.0 1022203
05:00−1˚se598465 0.0 1021499
08:00−1˚sse5108781 0.0 1021524
11:00sse697996 0.0 1021491
14:00+1˚se6107572 0.0 1019536
17:00−1˚se6138729 0.0 1019426
20:00−1˚se7158824 0.0 1018429